Weather History for Birmingham, United Kingdom

Change the Weather History Date:

Wednesday, October 26, 2011

  Actual Average Record
Temperature  
Mean Temperature 45 °F -  
Max Temperature 55 °F 50 °F 60 °F (2013)
Min Temperature 35 °F 38 °F 24 °F (1997)
Degree Days  
Heating Degree Days 20    
Moisture  
Dew Point 43 °F    
Average Humidity 90    
Maximum Humidity 100    
Minimum Humidity 67    
Precipitation  
Precipitation 0.00 in 0.08 in - ()
Sea Level Pressure  
Sea Level Pressure 29.59 in    
Wind  
Wind Speed 7 mph ()    
Max Wind Speed 12 mph    
Max Gust Speed -    
Visibility 5.4 miles    
Events Rain    
Averages and records for this station are not official NWS values.
T = Trace of Precipitation, MM = Missing Value Source: Averaged Metar Reports

Daily Weather History Graph

Daily Weather History Graph

Search for Another Location

Airport:

Trip Planner

Search our weather history database for the weather conditions in past years. The results will help you decide how hot, cold, wet, or windy it might be!

Date:

Astronomy

Oct. 26, 2011 Rise Set
Actual Time 7:51 AM BST 5:49 PM BST
Civil Twilight 7:16 AM BST 6:25 PM BST
Nautical Twilight 6:36 AM BST 7:04 PM BST
Astronomical Twilight 5:56 AM BST 7:44 PM BST
Moon 7:24 AM BST (10/26) 5:13 PM BST (10/26)
Length of Visible Light 11h 09m
Length of Day
9h 58m
Waning Crescent, 0% of the Moon is Illuminated
Oct 26
Waning Crescent
Oct 26
New
Nov 2
First Quarter
Nov 10
Full
Nov 18
Last Quarter

Hourly Weather History & Observations

Time (BST) Temp. Windchill Dew Point Humidity Pressure Visibility Wind Dir Wind Speed Gust Speed Precip Events Conditions
12:20 AM 46.4 °F 42.9 °F 46.4 °F 100% 29.47 in 6.2 mi SSW 6.9 mph - N/A   Mostly Cloudy
12:50 AM 46.4 °F 42.4 °F 44.6 °F 93% 29.47 in 6.2 mi SW 8.1 mph - N/A   Mostly Cloudy
1:20 AM 46.4 °F 42.4 °F 44.6 °F 93% 29.50 in 3.7 mi SSW 8.1 mph - N/A   Mostly Cloudy
1:50 AM 46.4 °F 41.5 °F 44.6 °F 93% 29.50 in 3.7 mi SW 10.4 mph - N/A   Mostly Cloudy
2:20 AM 44.6 °F 40.2 °F 44.6 °F 100% 29.50 in 3.7 mi SSW 8.1 mph - N/A   Mostly Cloudy
2:50 AM 44.6 °F 41.4 °F 42.8 °F 93% 29.50 in 3.1 mi SSW 5.8 mph - N/A   Mostly Cloudy
3:20 AM 44.6 °F 40.2 °F 44.6 °F 100% 29.50 in - SSW 8.1 mph - N/A   Mostly Cloudy
3:50 AM 44.6 °F 39.7 °F 42.8 °F 93% 29.50 in - South 9.2 mph - N/A   Scattered Clouds
4:20 AM 42.8 °F 38.6 °F 42.8 °F 100% 29.50 in - South 6.9 mph - N/A   Scattered Clouds
4:50 AM 42.8 °F 38.6 °F 41.0 °F 93% 29.53 in - South 6.9 mph - N/A   Partly Cloudy
5:20 AM 39.2 °F 35.9 °F 39.2 °F 100% 29.53 in - SSE 4.6 mph - N/A   Partly Cloudy
5:50 AM 37.4 °F 32.1 °F 37.4 °F 100% 29.53 in 1.4 mi SSE 6.9 mph - N/A   Mist
6:20 AM 35.6 °F 30.7 °F 35.6 °F 100% 29.53 in 1.9 mi SSE 5.8 mph - N/A   Mist
6:50 AM 35.6 °F 30.7 °F 35.6 °F 100% 29.53 in 6.2 mi SE 5.8 mph - N/A   Mist
7:20 AM 37.4 °F 34.9 °F 37.4 °F 100% 29.53 in 6.2 mi ESE 3.5 mph - N/A   Mist
7:50 AM 35.6 °F 30.7 °F 35.6 °F 100% 29.56 in 5.6 mi SE 5.8 mph - N/A   Mist
8:20 AM 35.6 °F 31.7 °F 35.6 °F 100% 29.56 in 5.0 mi SSE 4.6 mph - N/A   Unknown
8:50 AM 39.2 °F 34.2 °F 37.4 °F 93% 29.56 in 5.6 mi SSE 6.9 mph - N/A   Unknown
9:20 AM 39.2 °F 35.0 °F 39.2 °F 100% 29.59 in - SSE 5.8 mph - N/A   Clear
9:50 AM 42.8 °F 38.0 °F 42.8 °F 100% 29.59 in 5.6 mi SSE 8.1 mph - N/A   Unknown
10:20 AM 46.4 °F 43.5 °F 44.6 °F 93% 29.59 in - SSE 5.8 mph - N/A   Clear
10:50 AM 48.2 °F - 44.6 °F 87% 29.59 in - SSE 9.2 mph - N/A   Clear
11:20 AM 50.0 °F - 46.4 °F 87% 29.59 in - SSE 9.2 mph - N/A   Clear
11:50 AM 50.0 °F - 44.6 °F 82% 29.59 in - South 8.1 mph - N/A   Clear
12:20 PM 51.8 °F - 46.4 °F 82% 29.59 in 6.2 mi South 11.5 mph - N/A   Partly Cloudy
12:50 PM 53.6 °F - 44.6 °F 72% 29.59 in 6.2 mi South 11.5 mph - N/A   Partly Cloudy
1:20 PM 53.6 °F - 46.4 °F 77% 29.59 in 6.2 mi South 11.5 mph - N/A   Scattered Clouds
1:50 PM 53.6 °F - 44.6 °F 72% 29.59 in 6.2 mi South 9.2 mph - N/A   Scattered Clouds
2:20 PM 53.6 °F - 44.6 °F 72% 29.59 in 6.2 mi South 10.4 mph - N/A   Scattered Clouds
2:50 PM 55.4 °F - 46.4 °F 72% 29.59 in 6.2 mi South 5.8 mph - N/A   Scattered Clouds
3:20 PM 53.6 °F - 42.8 °F 67% 29.59 in 6.2 mi South 11.5 mph - N/A   Scattered Clouds
3:50 PM 51.8 °F - 44.6 °F 76% 29.59 in 6.2 mi South 9.2 mph - N/A   Scattered Clouds
4:20 PM 50.0 °F - 46.4 °F 87% 29.62 in 6.2 mi South 9.2 mph - N/A Rain Light Rain Showers
4:50 PM 50.0 °F - 46.4 °F 87% 29.62 in 6.2 mi South 4.6 mph - N/A   Partly Cloudy
5:20 PM 50.0 °F - 46.4 °F 87% 29.62 in 6.2 mi South 5.8 mph - N/A   Partly Cloudy
5:50 PM 48.2 °F - 44.6 °F 87% 29.62 in 6.2 mi South 5.8 mph - N/A   Scattered Clouds
6:20 PM 50.0 °F - 44.6 °F 82% 29.65 in 6.2 mi SSW 11.5 mph - N/A Rain Light Rain Showers
6:50 PM 46.4 °F 43.5 °F 42.8 °F 87% 29.65 in 6.2 mi South 5.8 mph - N/A   Partly Cloudy
7:20 PM 44.6 °F 41.4 °F 42.8 °F 93% 29.65 in - South 5.8 mph - N/A   Clear
7:50 PM 42.8 °F 39.3 °F 41.0 °F 93% 29.65 in - SSE 5.8 mph - N/A   Clear
8:20 PM 41.0 °F 37.1 °F 41.0 °F 100% 29.68 in - SSE 5.8 mph - N/A   Clear
8:50 PM 42.8 °F 38.6 °F 41.0 °F 93% 29.68 in - SSE 6.9 mph - N/A   Clear
9:20 PM 42.8 °F 38.6 °F 41.0 °F 93% 29.68 in - SSE 6.9 mph - N/A   Clear
9:50 PM 42.8 °F 39.3 °F 41.0 °F 93% 29.68 in - SSE 5.8 mph - N/A   Clear
10:20 PM 44.6 °F 41.4 °F 42.8 °F 93% 29.68 in - SE 5.8 mph - N/A   Clear
10:50 PM 44.6 °F 41.4 °F 42.8 °F 93% 29.68 in - SSE 5.8 mph - N/A   Clear
11:20 PM 44.6 °F 40.7 °F 42.8 °F 93% 29.68 in - SSE 6.9 mph - N/A   Clear
11:50 PM 46.4 °F 43.5 °F 44.6 °F 93% 29.71 in - SSE 5.8 mph - N/A   Clear